Location: Unspecified
(50.1700°N, 6.8600°E)
Time: 14:23:13
(UTC+00:00)

Cosmos 2278 Rocket - Pass Details

Date: 24 January 2019
Orbit: 841 x 846 km, 71.0° (Epoch: 19 April)

Event Time Altitude Azimuth Distance (km) Brightness Sun altitude
Exits shadow 04:25:29 13° 351° (N) 2,294 4.4 -27.3°
Drops below altitude 10° 04:26:46 10° 4° (N) 2,478 4.7 -27.1°
Sets 04:30:35 0° 29° (NNE) 3,417 5.8 -26.4°
